STARLINK-37604, 69203

Orbit data source: Space-Track

STARLINK-37604, 69203 is a payload satellite owned by SpaceX/Seattle (US) in LEO that was launched on Mon, 25 May 2026 UTC via an FALCON 9 launch vehicle from the Air Force Eastern Test Range (AFETR). Payload-class satellites include a variety of spacecraft equipped with specific instruments for various scientific and technological missions. These include communications satellites like Starlink; space stations such as the ISS; scientific satellites like the Hubble; Earth observation satellites from companies like Planet Labs, Umbra, and HawkEye 360; GPS; miniature CubeSats for education and research; and military/defense satellites.

Not visible in the next 10 days
Identifier
69203, 2026-114X
Orbit
LEO
Country
Flag of USUS
Related business
Manufacturer
SpaceX/Seattle
Mission
Operational spacecraft
Bus & Motor
STARLINK V2MO, Unknown motor
Mass
575 kg wet, ~530 kg dry
Launch date (UTC)
2026-05-25 (4 weeks ago)
Launch vehicle
FALCON 9
Launch site
Air Force Eastern Test Range (AFETR)
Object type
Payload
Rocket body
Debris
Shape & HBR
Unknown
Radar Cross Section
Large (>1 m²)

Expand to show TLE details & history
Last TLE update: 1 day ago

TLE from 1 day ago
0 STARLINK-37604
1 69203U 26114X   26170.52107579  .00171057  00000-0  84994-3 0  9994
2 69203  53.1565 190.3717 0000969  66.3182 293.7942 15.80954621  5142
Epoch: 2026-06-19T12:30Z
TLE epoch observation values (Epoch: 2026-06-19T12:30:20.948Z)
Latitude
-0.00004°
Longitude
95.03553°
Altitude
328.397 km
Speed
7.713 km/s
True Right ascension
12h 41m 29s
True Declination
0° 00' 00"
Sunlit
Object was in daylight at epoch
Visualization orbit readout
Latitude
Unknown
Longitude
Unknown
Altitude
Unknown
Speed
Unknown
Apparent Right ascension
Unknown
Apparent Declination
Unknown
Sunlit
N/A
Visualization observer readout
Local Sidereal Time
07:13:38
Azimuth
Unknown
Elevation
Unknown
Doppler factor
Unknown
Orbital elements
Apogee altitude
328.652 km
Perigee altitude
327.352 km
Semi-major axis
6,706.139 km
Eccentricity
0.0001
Inclination
53.1565°
RAAN
190.3717°
Arg. of periapsis
66.3182°
True anomaly
293.78404°
Mean anomaly
293.7942°
Eccentric anomaly
293.78912°
Mean motion
3.95216 °/min
Orbital period
91.09 mins
BSTAR
0.00084994
Loading maneuver chart data...
Computing Atmospheric mass density...
Loading historical data...
Loading historical data...
Loading historical data...
Loading historical data...
Loading historical data...
Loading historical data...
Loading historical data...

Documentation

Showing up to 5 results
|